Burley, ID

1:42 PM MDT on July 22, 2017 (GMT -0600)
Burley Municipal

Weather History for KBYI - August, 2014

Change the Weather History Date:

Wednesday, August 27, 2014

  Actual Average Record
Temperature  
Mean Temperature 65 °F 66 °F  
Max Temperature 79 °F 82 °F 94 °F (1995)
Min Temperature 50 °F 49 °F 34 °F (1954)
Degree Days  
Heating Degree Days 0 2  
Month to date heating degree days 22 24  
Since 1 June heating degree days 129 180  
Since 1 July heating degree days 25 46  
Cooling Degree Days 0 3  
Month to date cooling degree days 119 123  
Year to date cooling degree days 391 336  
Since 1 June cooling degree days 390 330  
Growing Degree Days 14 (Base 50)    
Moisture  
Dew Point 49 °F    
Average Humidity 59    
Maximum Humidity 86    
Minimum Humidity 32    
Precipitation  
Precipitation 0.00 in 0.02 in 0.08 in (1991)
Month to date precipitation 2.71 0.34  
Year to date precipitation 9.48 6.70  
Sea Level Pressure  
Sea Level Pressure 30.06 in    
Wind  
Wind Speed 5 mph (SW)    
Max Wind Speed 12 mph    
Max Gust Speed 17 mph    
Visibility 10 miles    
Events      
T = Trace of Precipitation, MM = Missing Value Source: NWS Daily Summary

Daily Weather History Graph

Daily Weather History Graph

Search for Another Location

Airport or City:

Trip Planner

Search our weather history database for the weather conditions in past years. The results will help you decide how hot, cold, wet, or windy it might be!

Date:

Astronomy

Aug. 27, 2014 Rise Set
Actual Time 6:54 AM MDT 8:17 PM MDT
Civil Twilight 6:25 AM MDT 8:46 PM MDT
Nautical Twilight 5:50 AM MDT 9:21 PM MDT
Astronomical Twilight 5:12 AM MDT 9:59 PM MDT
Moon 8:58 AM MDT (8/27) 9:07 PM MDT (8/27)
Length of Visible Light 14h 21m
Length of Day
13h 22m
Waxing Crescent, 4% of the Moon is Illuminated
Aug 27
Waxing Crescent
Sep 2
First Quarter
Sep 8
Full
Sep 15
Last Quarter
Sep 24
New

Hourly Weather History & Observations

Time (MDT) Temp. Dew Point Humidity Pressure Visibility Wind Dir Wind Speed Gust Speed Precip Events Conditions
12:53 AM 57.9 °F 48.9 °F 72% 30.05 in 10.0 mi SSW 9.2 mph - N/A   Clear
1:53 AM 55.9 °F 48.9 °F 77% 30.05 in 10.0 mi SSW 8.1 mph - N/A   Clear
2:53 AM 55.9 °F 48.0 °F 75% 30.05 in 10.0 mi South 4.6 mph - N/A   Clear
3:53 AM 54.0 °F 48.0 °F 80% 30.05 in 10.0 mi SSW 4.6 mph - N/A   Clear
4:53 AM 53.1 °F 48.0 °F 83% 30.06 in 10.0 mi SSW 4.6 mph - N/A   Clear
5:53 AM 51.1 °F 46.9 °F 86% 30.07 in 10.0 mi South 3.5 mph - N/A   Clear
6:53 AM 50.0 °F 46.9 °F 89% 30.09 in 10.0 mi SW 3.5 mph - N/A   Clear
7:53 AM 54.0 °F 48.9 °F 83% 30.11 in 10.0 mi SSW 4.6 mph - N/A   Clear
8:53 AM 59.0 °F 51.1 °F 75% 30.12 in 10.0 mi SW 4.6 mph - N/A   Clear
9:53 AM 64.9 °F 51.1 °F 61% 30.11 in 10.0 mi Calm Calm - N/A   Clear
10:53 AM 69.1 °F 50.0 °F 51% 30.11 in 10.0 mi Calm Calm - N/A   Scattered Clouds
11:53 AM 73.0 °F 50.0 °F 44% 30.10 in 10.0 mi Calm Calm - N/A   Clear
1:53 PM 75.9 °F 46.9 °F 36% 30.07 in 10.0 mi NW 6.9 mph - N/A   Clear
2:53 PM 78.1 °F 48.9 °F 36% 30.06 in 10.0 mi Variable 4.6 mph - N/A   Clear
3:53 PM 79.0 °F 50.0 °F 36% 30.04 in 10.0 mi West 5.8 mph - N/A   Clear
4:53 PM 79.0 °F 48.9 °F 35% 30.04 in 10.0 mi Variable 4.6 mph - N/A   Clear
5:53 PM 78.1 °F 46.0 °F 32% 30.04 in 10.0 mi Variable 5.8 mph - N/A   Clear
6:53 PM 75.9 °F 50.0 °F 40% 30.04 in 10.0 mi West 6.9 mph - N/A   Clear
7:53 PM 72.0 °F 50.0 °F 46% 30.04 in 10.0 mi WSW 5.8 mph - N/A   Clear
8:53 PM 66.0 °F 53.1 °F 63% 30.05 in 10.0 mi South 3.5 mph - N/A   Clear
9:53 PM 62.1 °F 53.1 °F 72% 30.05 in 10.0 mi Calm Calm - N/A   Clear
10:53 PM 60.1 °F 52.0 °F 75% 30.04 in 10.0 mi SSW 8.1 mph - N/A   Clear
11:53 PM 59.0 °F 51.1 °F 75% 30.04 in 10.0 mi SSW 4.6 mph - N/A   Clear